Hamilton, OH

12:16 PM EDT on March 26, 2017 (GMT -0400)
Butler County Regional

Weather History for KHAO - February, 2013

Change the Weather History Date:

Friday, February 15, 2013

  Actual Average (KLUK) Record (KLUK)
Temperature  
Mean Temperature 30 °F -  
Max Temperature 41 °F 44 °F 70 °F (1976)
Min Temperature 18 °F 27 °F 1 °F (2007)
Degree Days  
Heating Degree Days 35    
Moisture  
Dew Point 26 °F    
Average Humidity 79    
Maximum Humidity 92    
Minimum Humidity 61    
Precipitation  
Precipitation 0.01 in - - ()
Sea Level Pressure  
Sea Level Pressure 30.10 in    
Wind  
Wind Speed 5 mph (WNW)    
Max Wind Speed 17 mph    
Max Gust Speed 28 mph    
Visibility 8 miles    
Events Snow    
Averages and records for this station are not official NWS values.
T = Trace of Precipitation, MM = Missing Value Source: NWS Daily Summary

Daily Weather History Graph

Daily Weather History Graph

Search for Another Location

Airport or City:

Trip Planner

Search our weather history database for the weather conditions in past years. The results will help you decide how hot, cold, wet, or windy it might be!

Date:

Astronomy

Feb. 15, 2013 Rise Set
Actual Time 7:29 AM EST 6:15 PM EST
Civil Twilight 7:02 AM EST 6:42 PM EST
Nautical Twilight 6:30 AM EST 7:14 PM EST
Astronomical Twilight 5:59 AM EST 7:45 PM EST
Moon 10:07 AM EST (2/15) No Moon Set
Length of Visible Light 11h 40m
Length of Day
10h 45m
Waxing Crescent, 30% of the Moon is Illuminated
Feb 15
Waxing Crescent
Feb 17
First Quarter
Feb 25
Full
Mar 4
Last Quarter
Mar 11
New

Hourly Weather History & Observations

Time (EST) Temp. Windchill Dew Point Humidity Pressure Visibility Wind Dir Wind Speed Gust Speed Precip Events Conditions
12:53 AM 32.0 °F 28.7 °F 27.0 °F 82% 30.02 in 10.0 mi WNW 3.5 mph - N/A   Clear
1:53 AM 26.1 °F - 23.0 °F 88% 30.02 in 10.0 mi Calm Calm - N/A   Clear
2:53 AM 25.0 °F - 21.0 °F 85% 30.03 in 9.0 mi Calm Calm - N/A   Clear
3:53 AM 24.1 °F - 21.0 °F 88% 30.03 in 8.0 mi Calm Calm - N/A   Clear
4:53 AM 24.1 °F - 21.0 °F 88% 30.04 in 7.0 mi Calm Calm - N/A   Mostly Cloudy
5:53 AM 26.1 °F - 24.1 °F 92% 30.06 in 6.0 mi Calm Calm - N/A   Overcast
6:53 AM 28.9 °F - 26.1 °F 89% 30.07 in 7.0 mi Calm Calm - N/A   Overcast
7:53 AM 30.0 °F - 28.0 °F 92% 30.09 in 5.0 mi Calm Calm - N/A   Overcast
8:53 AM 33.1 °F 30.0 °F 28.9 °F 85% 30.11 in 7.0 mi NW 3.5 mph - N/A   Overcast
9:53 AM 36.0 °F 33.3 °F 28.9 °F 76% 30.10 in 10.0 mi WSW 3.5 mph - N/A   Overcast
10:44 AM 37.4 °F 32.8 °F 30.2 °F 75% 30.09 in 10.0 mi WSW 5.8 mph - N/A   Mostly Cloudy
10:53 AM 39.0 °F 33.4 °F 30.0 °F 70% 30.10 in 10.0 mi SW 8.1 mph - N/A   Mostly Cloudy
11:45 AM 41.0 °F 34.3 °F 30.2 °F 65% 30.08 in 10.0 mi West 11.5 mph 16.1 mph N/A   Mostly Cloudy
11:53 AM 41.0 °F 35.8 °F 28.9 °F 62% 30.09 in 10.0 mi West 8.1 mph - N/A   Mostly Cloudy
12:22 PM 41.0 °F 35.8 °F 28.4 °F 61% 30.08 in 10.0 mi West 8.1 mph 17.3 mph N/A   Overcast
12:53 PM 39.9 °F 32.9 °F 28.0 °F 63% 30.09 in 10.0 mi West 11.5 mph - N/A   Overcast
1:35 PM 35.6 °F 27.5 °F 30.2 °F 81% 30.07 in 2.5 mi WSW 11.5 mph - 0.00 in Snow Light Snow
1:50 PM 37.4 °F 32.1 °F 32.0 °F 81% 30.07 in 8.0 mi Variable 6.9 mph - 0.00 in   Mostly Cloudy
1:53 PM 37.9 °F 32.7 °F 32.0 °F 79% 30.09 in 9.0 mi West 6.9 mph - 0.00 in   Mostly Cloudy
2:24 PM 35.6 °F 26.2 °F 30.2 °F 81% 30.08 in 2.0 mi NW 15.0 mph - 0.01 in Snow Light Snow
2:30 PM 35.6 °F 26.6 °F 30.2 °F 81% 30.08 in 3.0 mi NW 13.8 mph - 0.01 in Snow Light Snow
2:53 PM 37.0 °F 31.6 °F 32.0 °F 82% 30.09 in 9.0 mi WNW 6.9 mph - 0.01 in   Overcast
3:53 PM 37.0 °F 28.9 °F 30.9 °F 79% 30.11 in 9.0 mi NW 12.7 mph - 0.00 in   Overcast
4:53 PM 36.0 °F 32.1 °F 27.0 °F 70% 30.12 in 10.0 mi West 4.6 mph - N/A   Overcast
5:00 PM 35.6 °F 25.5 °F 28.4 °F 75% 30.11 in 1.5 mi WNW 17.3 mph 27.6 mph 0.00 in Snow Light Snow
5:10 PM 33.8 °F 24.8 °F 28.4 °F 81% 30.11 in 3.0 mi NW 12.7 mph - 0.00 in Snow Light Snow
5:19 PM 33.8 °F 24.8 °F 28.4 °F 81% 30.12 in 10.0 mi NW 12.7 mph - 0.00 in   Mostly Cloudy
5:44 PM 33.8 °F 24.3 °F 28.4 °F 81% 30.12 in 8.0 mi NW 13.8 mph 19.6 mph 0.00 in Snow Light Snow
5:53 PM 33.1 °F 23.9 °F 26.1 °F 75% 30.15 in 9.0 mi NW 12.7 mph - 0.00 in Snow Light Snow
6:53 PM 30.0 °F 23.2 °F 23.0 °F 75% 30.17 in 10.0 mi NW 6.9 mph - N/A   Clear
7:53 PM 28.9 °F 22.8 °F 23.0 °F 78% 30.19 in 10.0 mi NW 5.8 mph - N/A   Clear
8:53 PM 28.0 °F 24.2 °F 21.9 °F 78% 30.19 in 10.0 mi WNW 3.5 mph - N/A   Partly Cloudy
9:53 PM 21.9 °F - 19.0 °F 89% 30.19 in 10.0 mi Calm Calm - N/A   Clear
10:53 PM 19.9 °F - 16.0 °F 85% 30.20 in 9.0 mi Calm Calm - N/A   Clear
11:53 PM 18.0 °F - 15.1 °F 88% 30.19 in 7.0 mi Calm Calm - N/A   Clear